CANX-4

Last updated on Thu Sep 10 2026 00:03:43 GMT+0000 (Coordinated Universal Time)

1 40055U 14034C 26252.58647747 .00000578 00000+0 81143-4 0 9991 2 40055 98.2974 130.9455 0014038 98.5548 261.7255 14.81386951657021
UTC large
Height (km)
Speed (km/s)
/
Latitude / Longitude
Inclination (degrees)
Orbital Period (minutes)
Azimuth
Elevation
Range (km)
Doppler Factor

Next 0 passes for location: London (51.5072 / 0.1276)

No passes found over London.
CANX-4